[[{"header":{"parameterUnit":"m.s-1","parameterCategory":1,"la1":30.2991,"la2":30.254,"lo1":-89.0895,"lo2":-89.0444,"dy":0.0017,"dx":0.0017,"nx":28,"ny":28,"refTime":"2026-01-31T03:00:00:Z","depth":0,"parameterNumber":2,"parameterNumberName":"U-component_of_WINDS"},"data":[0,0,0,0,0,0,0,0,0,0,0,0,0,0,0,0,0,0,0,0,0,0,0,0,0,0,0,0,0,0,0,0,0,0,0,0,0,0,0,0,0,0,0,0,0,0,0,0,0,0,0,0,0,0,0,0,0,0,4.3008,4.3009,0,4.3076,4.3077,4.3078,4.3053,4.3051,4.305,4.3048,4.3116,4.3119,4.3122,0,0,0,0,0,0,0,0,0,0,0,0,0,4.2858,4.2861,4.3008,4.3009,4.301,4.3076,4.3077,4.3078,4.3053,4.3051,4.305,4.3048,4.3115,4.3119,4.3123,0,0,0,0,0,0,0,0,0,0,0,0,0,4.2924,4.2862,4.3008,4.3006,4.3006,4.3076,4.3077,4.3078,4.3054,4.3051,4.3049,4.3047,4.3114,4.3118,4.3123,4.3199,0,0,4.3138,4.314,0,0,0,0,0,0,0,0,4.2921,4.293,4.3005,4.3006,4.3007,4.3054,4.3049,4.3118,4.3054,4.3036,4.3048,4.3046,4.3097,4.3103,4.3121,4.3202,4.3205,4.3138,4.3141,4.3143,4.3145,0,0,0,0,0,0,0,4.2916,4.2927,4.3035,4.3006,4.3007,4.3001,4.3008,4.3062,4.3078,4.3037,4.3035,4.3044,4.3097,4.3116,4.3122,4.3206,4.3138,4.3142,4.3145,4.3147,4.3355,4.3357,0,0,0,0,0,0,4.2911,4.2923,4.3033,4.3037,4.2957,4.3006,4.3014,4.3041,4.3078,4.3081,4.3046,4.3042,4.3109,4.3117,4.3124,4.3217,4.3143,4.3148,4.3151,4.3352,4.3355,4.3358,0,0,0,0,0,0,4.2908,4.2921,4.303,4.298,4.2993,4.3011,4.3042,4.3043,4.3063,4.3084,4.3087,4.3062,4.3108,4.3118,4.3181,4.3219,4.315,4.3154,4.3349,4.3353,4.3357,4.3401,0,0,0,0,0,0,4.2904,4.292,4.2949,4.2981,4.2996,4.3086,4.3044,4.3046,4.3071,4.3068,4.31,4.3104,4.3107,4.3174,4.3186,4.3224,4.3158,4.3346,4.3351,4.3355,4.3396,4.3406,4.3414,0,0,0,0,0,4.2899,4.2958,4.295,4.2964,4.3032,4.3088,4.3097,4.3099,4.3074,4.3103,4.3118,4.3103,4.3213,4.3181,4.3194,4.3234,4.3343,4.3349,4.3355,4.3392,4.3404,4.3414,0,0,0,0,0,0,4.2928,4.2962,4.2954,4.3025,4.3054,4.3084,4.312,4.3111,4.3147,4.3142,4.3143,4.3151,4.3217,4.3232,4.3195,4.331,4.3274,4.3283,4.3298,4.331,4.3318,4.3313,4.3162,0,0,0,0,0,4.2943,4.2986,4.3013,4.3073,4.3088,4.3102,4.3126,4.3126,4.3156,4.3168,4.3186,4.3216,4.3257,4.3284,4.3323,4.3399,4.3406,4.3433,4.3442,4.3449,4.3457,4.35,4.3513,4.3377,4.3377,4.3377,0,0,4.2974,4.2998,4.3024,4.308,4.3102,4.3147,4.3112,4.316,4.3193,4.3175,4.3236,4.3251,4.3284,4.3355,4.3387,4.3369,4.3496,4.3457,4.3463,4.3466,4.3507,4.352,4.3532,4.3381,4.3381,4.338,0,0,4.3054,4.3075,4.3129,4.3153,4.3188,4.3197,4.321,4.3242,4.3252,4.3314,4.3302,4.3341,4.3412,4.3437,4.3459,4.3551,4.3539,4.3564,4.3611,4.3653,4.3663,4.3673,4.3707,4.3719,4.3571,4.3572,4.3572,0,4.3087,4.3154,4.3157,4.3208,4.3233,4.322,4.3275,4.3297,4.3343,4.3361,4.3341,4.3432,4.3453,4.353,4.3553,4.357,4.3586,4.356,4.3662,4.3671,4.368,4.3713,4.3726,4.3574,4.3574,4.3574,4.3573,0,4.3195,4.3242,4.3281,4.3327,4.3357,4.3409,4.3421,4.345,4.3449,4.346,4.3525,4.355,4.3595,4.3614,4.3611,4.3691,4.368,4.3661,4.3625,4.3696,4.3727,4.3739,4.3578,4.3577,4.3577,4.3576,0,0,4.3293,4.3343,4.3357,4.3379,4.3418,4.3454,4.3507,4.3552,4.3578,4.3611,4.3655,4.3717,4.3701,4.3726,4.3727,4.3764,4.3838,4.3741,4.3742,4.3759,4.3929,4.3943,4.3958,4.383,4.3833,4.3835,4.3927,0,4.3376,4.3469,4.3474,4.3558,4.3602,4.3592,4.3638,4.3667,4.368,4.372,4.3734,4.3779,4.3753,4.3769,4.3805,4.3821,4.3872,4.3814,4.3872,4.3874,4.3864,4.3973,4.3988,4.4073,4.3939,4.3941,4.3942,0,4.3485,4.3523,4.3612,4.3647,4.3666,4.3707,4.3751,4.3788,4.3822,4.3829,4.3859,4.3855,4.391,4.3873,4.3949,4.391,4.3934,4.3946,4.3949,4.3955,4.3912,4.3982,4.4101,4.4114,4.3961,4.3959,4.3958,0,4.3549,4.3622,4.3686,4.3704,4.3747,4.3777,4.3795,4.3827,4.3855,4.3893,4.3911,4.3955,4.3979,4.4013,4.4022,4.3994,4.4098,4.4061,4.4106,4.4106,4.4128,4.4127,4.4253,4.4144,4.4143,4.4143,4.4143,0,4.3642,4.3697,4.3715,4.3754,4.3816,4.3823,4.3884,4.3901,4.393,4.3972,4.3966,4.4006,4.4015,4.4057,4.4064,4.4127,4.4138,4.4145,4.4147,4.4146,4.4145,4.4162,4.4156,4.4147,4.4146,4.4145,4.4145,0,4.3723,4.3738,4.3806,4.3842,4.3852,4.3896,4.3927,4.3965,4.3978,4.4032,4.4045,4.4066,4.4116,4.4128,4.4187,4.4192,4.4266,4.4262,4.4255,4.4255,4.43,4.4296,4.4441,4.4461,4.4338,4.4339,4.434,0,4.3781,4.3824,4.3865,4.3893,4.3914,4.396,4.3989,4.3998,4.4028,4.4072,4.4105,4.4154,4.4193,4.4273,4.4294,4.4339,4.4336,4.4384,4.4343,4.4342,4.4338,4.4335,4.434,4.4391,4.4393,4.4394,4.4395,0,4.3883,4.3889,4.3931,4.3977,4.4012,4.4049,4.4083,4.4107,4.4121,4.4156,4.4207,4.4238,4.43,4.4349,4.4395,4.4415,4.4408,4.4408,4.4421,4.4421,4.4416,4.442,4.4277,4.4404,4.4403,4.4403,4.4402,4.4402,4.3955,4.3993,4.4029,4.4077,4.4105,4.4138,4.4176,4.4195,4.4238,4.4289,4.4292,4.4348,4.4383,4.4445,4.4468,4.4513,4.4498,4.4517,4.4521,4.4526,4.453,4.4409,4.4521,4.4521,4.4521,4.452,4.452,0,4.4058,4.4081,4.4125,4.4175,4.4213,4.4204,4.4243,4.4275,4.4325,4.4359,4.4399,4.4459,4.4508,4.4533,4.4582,4.4613,4.4611,4.4625,4.4623,4.4628,4.454,4.4524,4.4626,4.4626,4.4626,4.4626,4.4626,4.4626,4.4116,4.418,4.4191,4.427,4.4292,4.4348,4.4371,4.4402,4.443,4.4497,4.4538,4.4555,4.4586,4.4637,4.4682,4.4688,4.4706,4.4723,4.4727,4.4645,4.4634,4.4623,4.4609,4.4727,4.4727,4.4812,4.4812,4.4813]},{"header":{"parameterUnit":"m.s-1","parameterCategory":1,"la1":30.2991,"la2":30.254,"lo1":-89.0895,"lo2":-89.0444,"dy":0.0017,"dx":0.0017,"nx":28,"ny":28,"refTime":"2026-01-31T03:00:00:Z","depth":0,"parameterNumber":3,"parameterNumberName":"V-component_of_WINDS"},"data":[0,0,0,0,0,0,0,0,0,0,0,0,0,0,0,0,0,0,0,0,0,0,0,0,0,0,0,0,0,0,0,0,0,0,0,0,0,0,0,0,0,0,0,0,0,0,0,0,0,0,0,0,0,0,0,0,0,0,-10.0234,-10.0235,0,-10.0401,-10.0403,-10.0405,-10.0354,-10.0351,-10.0347,-10.0344,-10.0508,-10.0516,-10.0523,0,0,0,0,0,0,0,0,0,0,0,0,0,-9.9866,-9.9873,-10.0233,-10.0236,-10.0238,-10.0401,-10.0403,-10.0405,-10.0355,-10.035,-10.0346,-10.0342,-10.0506,-10.0515,-10.0524,0,0,0,0,0,0,0,0,0,0,0,0,0,-10.0028,-9.9875,-10.0233,-10.0232,-10.0234,-10.04,-10.0403,-10.0406,-10.0356,-10.035,-10.0345,-10.034,-10.0503,-10.0514,-10.0525,-10.07,0,0,-10.056,-10.0565,0,0,0,0,0,0,0,0,-10.0019,-10.0042,-10.023,-10.0233,-10.0235,-10.0351,-10.0333,-10.0504,-10.0357,-10.0309,-10.0344,-10.0338,-10.046,-10.0474,-10.0517,-10.0708,-10.0715,-10.0561,-10.0568,-10.0573,-10.0576,0,0,0,0,0,0,0,-10.0008,-10.0034,-10.0299,-10.0233,-10.0236,-10.0222,-10.0239,-10.0366,-10.0411,-10.0313,-10.031,-10.0331,-10.046,-10.0506,-10.052,-10.0717,-10.0561,-10.0571,-10.0578,-10.0582,-10.1062,-10.1068,0,0,0,0,0,0,-9.9996,-10.0025,-10.0294,-10.0304,-10.0112,-10.0233,-10.0252,-10.0319,-10.041,-10.0419,-10.0335,-10.0328,-10.0489,-10.0507,-10.0526,-10.0739,-10.0573,-10.0583,-10.059,-10.1057,-10.1064,-10.107,0,0,0,0,0,0,-9.9988,-10.0021,-10.0287,-10.0164,-10.0197,-10.0245,-10.032,-10.0325,-10.0371,-10.0427,-10.0434,-10.0374,-10.0486,-10.051,-10.0658,-10.0744,-10.0589,-10.0599,-10.105,-10.1059,-10.1067,-10.1165,0,0,0,0,0,0,-9.9978,-10.0018,-10.0086,-10.0166,-10.0204,-10.0418,-10.0325,-10.0332,-10.0392,-10.0384,-10.0465,-10.0474,-10.0484,-10.0642,-10.067,-10.0757,-10.0608,-10.1042,-10.1054,-10.1064,-10.1154,-10.1176,-10.1194,0,0,0,0,0,-9.9965,-10.0105,-10.009,-10.0122,-10.029,-10.0423,-10.0445,-10.0455,-10.0399,-10.0467,-10.0503,-10.0471,-10.073,-10.0657,-10.0688,-10.078,-10.1037,-10.105,-10.1063,-10.1145,-10.1171,-10.1194,0,0,0,0,0,0,-10.003,-10.0115,-10.0099,-10.0269,-10.034,-10.0415,-10.0501,-10.0483,-10.0569,-10.0557,-10.0565,-10.0584,-10.0736,-10.0773,-10.069,-10.0956,-10.0875,-10.0895,-10.0926,-10.0952,-10.0972,-10.096,-10.0617,0,0,0,0,0,-10.0064,-10.0167,-10.0235,-10.0379,-10.0415,-10.0453,-10.0511,-10.0513,-10.0586,-10.0614,-10.0661,-10.0731,-10.0828,-10.0892,-10.0984,-10.1159,-10.1177,-10.1238,-10.1258,-10.1274,-10.1291,-10.1389,-10.1417,-10.1114,-10.1114,-10.1113,0,0,-10.0135,-10.0195,-10.0259,-10.0393,-10.0448,-10.0554,-10.0478,-10.0591,-10.067,-10.0631,-10.0775,-10.0812,-10.089,-10.1054,-10.1128,-10.1089,-10.138,-10.1291,-10.1304,-10.1312,-10.1405,-10.1434,-10.146,-10.1123,-10.1121,-10.112,0,0,-10.032,-10.0375,-10.0502,-10.056,-10.0645,-10.067,-10.07,-10.0779,-10.0803,-10.0949,-10.0923,-10.1015,-10.1182,-10.124,-10.1291,-10.1501,-10.1475,-10.1531,-10.1636,-10.1731,-10.1755,-10.1776,-10.1852,-10.188,-10.1548,-10.1548,-10.1548,0,-10.0397,-10.0557,-10.0568,-10.0687,-10.0747,-10.072,-10.0849,-10.0903,-10.1014,-10.1055,-10.1011,-10.1223,-10.1273,-10.1451,-10.1503,-10.1544,-10.1579,-10.1521,-10.1751,-10.1772,-10.1792,-10.1865,-10.1894,-10.1554,-10.1554,-10.1553,-10.1553,0,-10.0648,-10.076,-10.0852,-10.0963,-10.1034,-10.1156,-10.1185,-10.1255,-10.1252,-10.1281,-10.143,-10.1491,-10.1597,-10.1639,-10.1635,-10.1817,-10.179,-10.1749,-10.1668,-10.1827,-10.1896,-10.1924,-10.1564,-10.1561,-10.1559,-10.1558,0,0,-10.0876,-10.0995,-10.1029,-10.108,-10.1174,-10.126,-10.1381,-10.1488,-10.1548,-10.1626,-10.1728,-10.1872,-10.1835,-10.1893,-10.1896,-10.198,-10.2145,-10.1928,-10.193,-10.1967,-10.235,-10.2382,-10.2414,-10.2128,-10.2134,-10.2138,-10.2344,0,-10.1069,-10.1286,-10.1301,-10.1496,-10.16,-10.1578,-10.1684,-10.1753,-10.1784,-10.1875,-10.1908,-10.2011,-10.1953,-10.1989,-10.207,-10.2107,-10.2222,-10.2093,-10.2223,-10.2227,-10.2205,-10.2449,-10.2482,-10.2674,-10.2371,-10.2375,-10.2378,0,-10.1323,-10.1413,-10.1619,-10.1702,-10.1746,-10.1841,-10.1941,-10.2029,-10.2107,-10.2124,-10.2191,-10.2184,-10.2308,-10.2224,-10.2395,-10.2307,-10.2361,-10.2388,-10.2396,-10.2408,-10.2313,-10.2469,-10.2735,-10.2764,-10.242,-10.2417,-10.2414,0,-10.147,-10.1642,-10.1789,-10.1833,-10.1933,-10.2001,-10.2045,-10.2118,-10.2182,-10.2268,-10.231,-10.2409,-10.2463,-10.254,-10.2559,-10.2496,-10.2731,-10.2647,-10.2748,-10.2748,-10.2798,-10.2795,-10.3077,-10.2832,-10.2832,-10.2831,-10.2831,0,-10.1685,-10.1812,-10.1857,-10.1947,-10.2089,-10.2106,-10.2246,-10.2286,-10.2352,-10.2448,-10.2434,-10.2524,-10.2545,-10.2639,-10.2655,-10.2795,-10.2819,-10.2836,-10.2839,-10.2838,-10.2836,-10.2873,-10.2861,-10.2839,-10.2837,-10.2836,-10.2835,0,-10.1873,-10.1908,-10.2067,-10.2149,-10.2173,-10.2275,-10.2345,-10.2431,-10.2461,-10.2584,-10.2614,-10.2661,-10.2772,-10.2799,-10.293,-10.2941,-10.3108,-10.3097,-10.3082,-10.3082,-10.3182,-10.3172,-10.3498,-10.3542,-10.3268,-10.327,-10.3273,0,-10.2008,-10.2106,-10.2201,-10.2267,-10.2315,-10.242,-10.2486,-10.2506,-10.2576,-10.2674,-10.2749,-10.2859,-10.2948,-10.3126,-10.3171,-10.3272,-10.3264,-10.3371,-10.3278,-10.3276,-10.3267,-10.3261,-10.3272,-10.3388,-10.3391,-10.3394,-10.3396,0,-10.2244,-10.2258,-10.2355,-10.246,-10.2541,-10.2623,-10.2702,-10.2756,-10.2787,-10.2866,-10.2981,-10.3051,-10.3187,-10.3297,-10.3399,-10.3442,-10.3425,-10.3425,-10.3454,-10.3454,-10.3442,-10.3451,-10.3131,-10.3417,-10.3415,-10.3413,-10.3412,-10.3411,-10.241,-10.2498,-10.258,-10.2689,-10.2752,-10.2827,-10.2914,-10.2956,-10.3054,-10.3168,-10.3174,-10.33,-10.3376,-10.3513,-10.3563,-10.366,-10.3627,-10.3669,-10.3679,-10.3689,-10.3699,-10.3427,-10.3679,-10.3678,-10.3677,-10.3677,-10.3677,0,-10.2647,-10.27,-10.2801,-10.2914,-10.3001,-10.298,-10.3067,-10.314,-10.3252,-10.3326,-10.3416,-10.3549,-10.3656,-10.3711,-10.3817,-10.3885,-10.3879,-10.3912,-10.3907,-10.3918,-10.3722,-10.3687,-10.3915,-10.3915,-10.3915,-10.3914,-10.3914,-10.3914,-10.2781,-10.2929,-10.2952,-10.3131,-10.3182,-10.3307,-10.3359,-10.3428,-10.3488,-10.3639,-10.3729,-10.3765,-10.3832,-10.3943,-10.4041,-10.4054,-10.4094,-10.4131,-10.414,-10.3955,-10.3931,-10.3908,-10.3876,-10.4139,-10.414,-10.4328,-10.433,-10.4331]}]]